Provo, UT

2:34 PM MST on December 06, 2019 (GMT -0700)
Provo Municipal

Weather History for KPVU - October, 2019

Change the Weather History Date:

Monday, October 14, 2019

  Actual Average Record
Temperature  
Mean Temperature 52 °F -  
Max Temperature 70 °F 63 °F 78 °F (1989)
Min Temperature 33 °F 35 °F 26 °F (2008)
Degree Days  
Heating Degree Days 14    
Growing Degree Days 2 (Base 50)    
Moisture  
Dew Point 18 °F    
Average Humidity 32    
Maximum Humidity 53    
Minimum Humidity 9    
Precipitation  
Precipitation 0.00 in - - ()
Sea Level Pressure  
Sea Level Pressure 30.00 in    
Wind  
Wind Speed 4 mph (East)    
Max Wind Speed 13 mph    
Max Gust Speed -    
Visibility 10 miles    
Events      
Averages and records for this station are not official NWS values.
T = Trace of Precipitation, MM = Missing Value Source: NWS Daily Summary

Daily Weather History Graph

Daily Weather History Graph

Search for Another Location

Airport or City:

Astronomy

Oct. 14, 2019 Rise Set
Actual Time 7:36 AM MDT 6:48 PM MDT
Civil Twilight 7:09 AM MDT 7:16 PM MDT
Nautical Twilight 6:37 AM MDT 7:47 PM MDT
Astronomical Twilight 6:06 AM MDT 8:18 PM MDT
Moon 7:40 PM MDT (10/14) 8:11 AM MDT (10/14)
Length of Visible Light 12h 07m
Length of Day
11h 12m
Full, 99% of the Moon is Illuminated
Oct 14
Full
Oct 21
Last Quarter
Oct 27
New
Nov 4
First Quarter
Nov 12
Full

Hourly Weather History & Observations

Time (MDT) Temp. Windchill Dew Point Humidity Pressure Visibility Wind Dir Wind Speed Gust Speed Precip Events Conditions
12:56 AM 44.1 °F - 18.0 °F 35% 29.93 in 10.0 mi Calm Calm - N/A   Clear
1:56 AM 41.0 °F 38.0 °F 19.0 °F 41% 29.94 in 10.0 mi East 4.6 mph - N/A   Clear
2:56 AM 39.0 °F 35.7 °F 17.1 °F 41% 29.94 in 10.0 mi ENE 4.6 mph - N/A   Clear
3:56 AM 41.0 °F - 10.9 °F 29% 29.93 in 10.0 mi Calm Calm - N/A   Clear
4:56 AM 42.1 °F 37.7 °F 12.9 °F 31% 29.93 in 10.0 mi ESE 6.9 mph - N/A   Clear
5:56 AM 41.0 °F 35.2 °F 12.0 °F 31% 29.96 in 10.0 mi ESE 9.2 mph - N/A   Clear
6:56 AM 37.0 °F - 17.1 °F 44% 29.99 in 10.0 mi Calm Calm - N/A   Partly Cloudy
7:56 AM 33.1 °F 30.0 °F 17.1 °F 52% 30.03 in 10.0 mi East 3.5 mph - N/A   Partly Cloudy
8:56 AM 45.0 °F - 15.1 °F 30% 30.02 in 10.0 mi Calm Calm - N/A   Partly Cloudy
9:56 AM 50.0 °F - 16.0 °F 26% 30.03 in 10.0 mi Variable 4.6 mph - N/A   Partly Cloudy
10:56 AM 55.9 °F - 14.0 °F 19% 30.00 in 10.0 mi ESE 6.9 mph - N/A   Clear
11:56 AM 57.9 °F - 23.0 °F 26% 30.00 in 10.0 mi Calm Calm - N/A   Partly Cloudy
12:56 PM 62.1 °F - 24.1 °F 23% 29.99 in 10.0 mi West 4.6 mph - N/A   Clear
1:56 PM 66.9 °F - 14.0 °F 13% 29.98 in 10.0 mi Variable 3.5 mph - N/A   Partly Cloudy
2:56 PM 68.0 °F - 9.0 °F 10% 29.96 in 10.0 mi Calm Calm - N/A   Partly Cloudy
3:56 PM 70.0 °F - 8.1 °F 9% 29.94 in 10.0 mi SW 3.5 mph - N/A   Clear
4:56 PM 69.1 °F - 9.0 °F 10% 29.95 in 10.0 mi WNW 3.5 mph - N/A   Clear
5:56 PM 64.9 °F - 18.0 °F 16% 29.97 in 10.0 mi NW 10.4 mph - N/A   Partly Cloudy
6:56 PM 54.0 °F - 35.1 °F 49% 30.01 in 10.0 mi NW 12.7 mph - N/A   Clear
7:56 PM 55.0 °F - 27.0 °F 34% 30.05 in 10.0 mi NNW 12.7 mph - N/A   Clear
8:56 PM 55.0 °F - 23.0 °F 29% 30.05 in 10.0 mi North 4.6 mph - N/A   Clear
9:56 PM 44.1 °F 40.8 °F 28.0 °F 53% 30.09 in 10.0 mi ESE 5.8 mph - N/A   Clear
10:56 PM 43.0 °F - 27.0 °F 53% 30.09 in 10.0 mi Calm Calm - N/A   Clear
11:56 PM 41.0 °F 39.0 °F 25.0 °F 53% 30.11 in 10.0 mi South 3.5 mph - N/A   Clear